Year,Month,Day,Hour,Minute,Value (Times are PST for temperature in C)
2011,07,09,00,00,9.90
2011,07,09,00,01,9.90
2011,07,09,00,02,9.90
2011,07,09,00,03,9.90
2011,07,09,00,04,9.90
2011,07,09,00,05,9.80
2011,07,09,00,06,9.80
2011,07,09,00,07,9.80
2011,07,09,00,08,9.80
2011,07,09,00,09,9.80
2011,07,09,00,10,9.70
2011,07,09,00,11,9.70
2011,07,09,00,12,9.70
2011,07,09,00,13,9.70
2011,07,09,00,14,9.70
2011,07,09,00,15,9.70
2011,07,09,00,16,9.70
2011,07,09,00,17,9.60
2011,07,09,00,18,9.60
2011,07,09,00,19,9.60
2011,07,09,00,20,9.60
2011,07,09,00,21,9.60
2011,07,09,00,22,9.60
2011,07,09,00,23,9.50
2011,07,09,00,24,9.50
2011,07,09,00,25,9.50
2011,07,09,00,26,9.40
2011,07,09,00,27,9.40
2011,07,09,00,28,9.40
2011,07,09,00,29,9.40
2011,07,09,00,30,9.30
2011,07,09,00,31,9.30
2011,07,09,00,32,9.30
2011,07,09,00,33,9.30
2011,07,09,00,34,9.30
2011,07,09,00,35,9.30
2011,07,09,00,36,9.20
2011,07,09,00,37,9.20
2011,07,09,00,38,9.20
2011,07,09,00,39,9.20
2011,07,09,00,40,9.20
2011,07,09,00,41,9.20
2011,07,09,00,42,9.10
2011,07,09,00,43,9.10
2011,07,09,00,44,9.10
2011,07,09,00,45,9.10
2011,07,09,00,46,9.10
2011,07,09,00,47,9.00
2011,07,09,00,48,9.00
2011,07,09,00,49,9.00
2011,07,09,00,50,9.00
2011,07,09,00,51,9.00
2011,07,09,00,52,8.90
2011,07,09,00,53,8.90
2011,07,09,00,54,8.90
2011,07,09,00,55,8.90
2011,07,09,00,56,8.90
2011,07,09,00,57,8.90
2011,07,09,00,58,8.90
2011,07,09,00,59,8.90
2011,07,09,01,00,8.80
2011,07,09,01,01,8.80
2011,07,09,01,02,8.90
2011,07,09,01,03,8.90
2011,07,09,01,04,8.90
2011,07,09,01,05,8.90
2011,07,09,01,06,8.90
2011,07,09,01,07,8.90
2011,07,09,01,08,8.80
2011,07,09,01,09,8.80
2011,07,09,01,10,8.80
2011,07,09,01,11,8.80
2011,07,09,01,12,8.80
2011,07,09,01,13,8.80
2011,07,09,01,14,8.80
2011,07,09,01,15,8.80
2011,07,09,01,16,8.80
2011,07,09,01,17,8.70
2011,07,09,01,18,8.70
2011,07,09,01,19,8.70
2011,07,09,01,20,8.70
2011,07,09,01,21,8.70
2011,07,09,01,22,8.70
2011,07,09,01,23,8.70
2011,07,09,01,24,8.70
2011,07,09,01,25,8.80
2011,07,09,01,26,8.70
2011,07,09,01,27,8.70
2011,07,09,01,28,8.70
2011,07,09,01,29,8.70
2011,07,09,01,30,8.70
2011,07,09,01,31,8.70
2011,07,09,01,32,8.70
2011,07,09,01,33,8.70
2011,07,09,01,34,8.70
2011,07,09,01,35,8.70
2011,07,09,01,36,8.70
2011,07,09,01,37,8.60
2011,07,09,01,38,8.60
2011,07,09,01,39,8.60
2011,07,09,01,40,8.60
2011,07,09,01,41,8.60
2011,07,09,01,42,8.60
2011,07,09,01,43,8.50
2011,07,09,01,44,8.50
2011,07,09,01,45,8.50
2011,07,09,01,46,8.50
2011,07,09,01,47,8.40
2011,07,09,01,48,8.40
2011,07,09,01,49,8.40
2011,07,09,01,50,8.40
2011,07,09,01,51,8.40
2011,07,09,01,52,8.40
2011,07,09,01,53,8.30
2011,07,09,01,54,8.30
2011,07,09,01,55,8.30
2011,07,09,01,56,8.30
2011,07,09,01,57,8.30
2011,07,09,01,58,8.30
2011,07,09,01,59,8.30
2011,07,09,02,00,8.30
2011,07,09,02,01,8.30
2011,07,09,02,02,8.30
2011,07,09,02,03,8.30
2011,07,09,02,04,8.30
2011,07,09,02,05,8.30
2011,07,09,02,06,8.30
2011,07,09,02,07,8.30
2011,07,09,02,08,8.30
2011,07,09,02,09,8.20
2011,07,09,02,10,8.20
2011,07,09,02,11,8.20
2011,07,09,02,12,8.20
2011,07,09,02,13,8.20
2011,07,09,02,14,8.20
2011,07,09,02,15,8.20
2011,07,09,02,16,8.20
2011,07,09,02,17,8.20
2011,07,09,02,18,8.10
2011,07,09,02,19,8.10
2011,07,09,02,20,8.10
2011,07,09,02,21,8.10
2011,07,09,02,22,8.10
2011,07,09,02,23,8.10
2011,07,09,02,24,8.10
2011,07,09,02,25,8.00
2011,07,09,02,26,8.00
2011,07,09,02,27,8.00
2011,07,09,02,28,7.90
2011,07,09,02,29,7.90
2011,07,09,02,30,7.90
2011,07,09,02,31,7.90
2011,07,09,02,32,7.90
2011,07,09,02,33,7.80
2011,07,09,02,34,7.80
2011,07,09,02,35,7.80
2011,07,09,02,36,7.80
2011,07,09,02,37,7.80
2011,07,09,02,38,7.70
2011,07,09,02,39,7.70
2011,07,09,02,40,7.70
2011,07,09,02,41,7.70
2011,07,09,02,42,7.70
2011,07,09,02,43,7.70
2011,07,09,02,44,7.70
2011,07,09,02,45,7.70
2011,07,09,02,46,7.70
2011,07,09,02,47,7.70
2011,07,09,02,48,7.70
2011,07,09,02,49,7.60
2011,07,09,02,50,7.60
2011,07,09,02,51,7.60
2011,07,09,02,52,7.60
2011,07,09,02,53,7.60
2011,07,09,02,54,7.60
2011,07,09,02,55,7.60
2011,07,09,02,56,7.60
2011,07,09,02,57,7.60
2011,07,09,02,58,7.60
2011,07,09,02,59,7.60
2011,07,09,03,00,7.60
2011,07,09,03,01,7.60
2011,07,09,03,02,7.60
2011,07,09,03,06,7.50
2011,07,09,03,07,7.50
2011,07,09,03,08,7.50
2011,07,09,03,09,7.50
2011,07,09,03,10,7.40
2011,07,09,03,11,7.40
2011,07,09,03,12,7.40
2011,07,09,03,13,7.40
2011,07,09,03,14,7.40
2011,07,09,03,15,7.40
2011,07,09,03,16,7.40
2011,07,09,03,17,7.40
2011,07,09,03,18,7.40
2011,07,09,03,19,7.40
2011,07,09,03,20,7.40
2011,07,09,03,21,7.40
2011,07,09,03,22,7.40
2011,07,09,03,23,7.40
2011,07,09,03,24,7.40
2011,07,09,03,25,7.40
2011,07,09,03,26,7.40
2011,07,09,03,27,7.40
2011,07,09,03,28,7.30
2011,07,09,03,29,7.30
2011,07,09,03,30,7.30
2011,07,09,03,31,7.30
2011,07,09,03,32,7.30
2011,07,09,03,33,7.30
2011,07,09,03,34,7.30
2011,07,09,03,35,7.30
2011,07,09,03,36,7.30
2011,07,09,03,37,7.30
2011,07,09,03,38,7.30
2011,07,09,03,39,7.30
2011,07,09,03,40,7.30
2011,07,09,03,41,7.30
2011,07,09,03,42,7.20
2011,07,09,03,43,7.20
2011,07,09,03,44,7.20
2011,07,09,03,45,7.20
2011,07,09,03,46,7.20
2011,07,09,03,47,7.20
2011,07,09,03,48,7.20
2011,07,09,03,49,7.20
2011,07,09,03,50,7.20
2011,07,09,03,51,7.20
2011,07,09,03,52,7.20
2011,07,09,03,53,7.20
2011,07,09,03,54,7.20
2011,07,09,03,55,7.20
2011,07,09,03,56,7.20
2011,07,09,03,57,7.20
2011,07,09,03,58,7.20
2011,07,09,03,59,7.10
2011,07,09,04,00,7.10
2011,07,09,04,01,7.10
2011,07,09,04,02,7.10
2011,07,09,04,03,7.10
2011,07,09,04,04,7.10
2011,07,09,04,05,7.10
2011,07,09,04,06,7.00
2011,07,09,04,07,7.00
2011,07,09,04,08,7.00
2011,07,09,04,09,7.00
2011,07,09,04,10,7.00
2011,07,09,04,11,7.00
2011,07,09,04,12,7.00
2011,07,09,04,13,7.00
2011,07,09,04,14,6.90
2011,07,09,04,15,6.90
2011,07,09,04,16,6.90
2011,07,09,04,17,6.90
2011,07,09,04,18,6.90
2011,07,09,04,19,6.90
2011,07,09,04,20,6.90
2011,07,09,04,21,6.90
2011,07,09,04,22,6.90
2011,07,09,04,23,6.80
2011,07,09,04,24,6.80
2011,07,09,04,25,6.80
2011,07,09,04,26,6.80
2011,07,09,04,27,6.80
2011,07,09,04,28,6.80
2011,07,09,04,29,6.80
2011,07,09,04,30,6.80
2011,07,09,04,31,6.80
2011,07,09,04,32,6.80
2011,07,09,04,33,6.80
2011,07,09,04,34,6.80
2011,07,09,04,35,6.80
2011,07,09,04,36,6.80
2011,07,09,04,37,6.80
2011,07,09,04,38,6.80
2011,07,09,04,39,6.70
2011,07,09,04,40,6.70
2011,07,09,04,41,6.70
2011,07,09,04,42,6.70
2011,07,09,04,43,6.70
2011,07,09,04,44,6.70
2011,07,09,04,45,6.70
2011,07,09,04,46,6.70
2011,07,09,04,47,6.70
2011,07,09,04,48,6.70
2011,07,09,04,49,6.70
2011,07,09,04,50,6.70
2011,07,09,04,51,6.60
2011,07,09,04,52,6.60
2011,07,09,04,53,6.60
2011,07,09,04,54,6.60
2011,07,09,04,55,6.60
2011,07,09,04,56,6.60
2011,07,09,04,57,6.60
2011,07,09,04,58,6.60
2011,07,09,04,59,6.60
2011,07,09,05,00,6.60
2011,07,09,05,01,6.60
2011,07,09,05,02,6.50
2011,07,09,05,03,6.50
2011,07,09,05,04,6.50
2011,07,09,05,05,6.50
2011,07,09,05,06,6.50
2011,07,09,05,07,6.50
2011,07,09,05,08,6.50
2011,07,09,05,09,6.50
2011,07,09,05,10,6.40
2011,07,09,05,11,6.40
2011,07,09,05,12,6.40
2011,07,09,05,13,6.40
2011,07,09,05,14,6.40
2011,07,09,05,15,6.40
2011,07,09,05,16,6.40
2011,07,09,05,17,6.30
2011,07,09,05,18,6.30
2011,07,09,05,19,6.30
2011,07,09,05,20,6.30
2011,07,09,05,21,6.30
2011,07,09,05,22,6.30
2011,07,09,05,23,6.30
2011,07,09,05,24,6.30
2011,07,09,05,25,6.30
2011,07,09,05,26,6.30
2011,07,09,05,27,6.30
2011,07,09,05,28,6.30
2011,07,09,05,29,6.30
2011,07,09,05,30,6.30
2011,07,09,05,31,6.30
2011,07,09,05,32,6.30
2011,07,09,05,33,6.30
2011,07,09,05,34,6.30
2011,07,09,05,35,6.20
2011,07,09,05,36,6.20
2011,07,09,05,37,6.20
2011,07,09,05,38,6.20
2011,07,09,05,39,6.20
2011,07,09,05,40,6.20
2011,07,09,05,41,6.20
2011,07,09,05,42,6.20
2011,07,09,05,43,6.20
2011,07,09,05,44,6.20
2011,07,09,05,45,6.20
2011,07,09,05,46,6.20
2011,07,09,05,47,6.20
2011,07,09,05,48,6.20
2011,07,09,05,49,6.20
2011,07,09,05,50,6.20
2011,07,09,05,51,6.20
2011,07,09,05,52,6.20
2011,07,09,05,53,6.20
2011,07,09,05,54,6.20
2011,07,09,05,55,6.20
2011,07,09,05,56,6.20
2011,07,09,05,57,6.20
2011,07,09,05,58,6.20
2011,07,09,05,59,6.20
2011,07,09,06,00,6.20
2011,07,09,06,01,6.20
2011,07,09,06,02,6.20
2011,07,09,06,03,6.20
2011,07,09,06,04,6.20
2011,07,09,06,05,6.20
2011,07,09,06,06,6.20
2011,07,09,06,07,6.20
2011,07,09,06,08,6.20
2011,07,09,06,09,6.20
2011,07,09,06,10,6.20
2011,07,09,06,11,6.20
2011,07,09,06,12,6.20
2011,07,09,06,13,6.20
2011,07,09,06,14,6.20
2011,07,09,06,15,6.20
2011,07,09,06,16,6.30
2011,07,09,06,17,6.30
2011,07,09,06,18,6.30
2011,07,09,06,19,6.30
2011,07,09,06,20,6.30
2011,07,09,06,21,6.30
2011,07,09,06,22,6.30
2011,07,09,06,23,6.30
2011,07,09,06,24,6.30
2011,07,09,06,25,6.30
2011,07,09,06,26,6.30
2011,07,09,06,27,6.40
2011,07,09,06,28,6.40
2011,07,09,06,29,6.40
2011,07,09,06,30,6.40
2011,07,09,06,31,6.40
2011,07,09,06,32,6.40
2011,07,09,06,33,6.40
2011,07,09,06,34,6.50
2011,07,09,06,35,6.50
2011,07,09,06,36,6.50
2011,07,09,06,37,6.50
2011,07,09,06,38,6.50
2011,07,09,06,39,6.60
2011,07,09,06,40,6.60
2011,07,09,06,41,6.60
2011,07,09,06,42,6.60
2011,07,09,06,43,6.60
2011,07,09,06,44,6.70
2011,07,09,06,45,6.70
2011,07,09,06,46,6.70
2011,07,09,06,47,6.70
2011,07,09,06,48,6.70
2011,07,09,06,49,6.70
2011,07,09,06,50,6.80
2011,07,09,06,51,6.80
2011,07,09,06,52,6.80
2011,07,09,06,53,6.80
2011,07,09,06,54,6.80
2011,07,09,06,55,6.80
2011,07,09,06,56,6.80
2011,07,09,06,57,6.80
2011,07,09,06,58,6.90
2011,07,09,06,59,6.90
2011,07,09,07,00,6.90
2011,07,09,07,01,6.90
2011,07,09,07,02,6.90
2011,07,09,07,03,7.00
2011,07,09,07,04,7.00
2011,07,09,07,05,7.10
2011,07,09,07,06,7.10
2011,07,09,07,07,7.20
2011,07,09,07,08,7.20
2011,07,09,07,09,7.20
2011,07,09,07,10,7.20
2011,07,09,07,11,7.30
2011,07,09,07,12,7.30
2011,07,09,07,13,7.40
2011,07,09,07,14,7.40
2011,07,09,07,15,7.40
2011,07,09,07,16,7.50
2011,07,09,07,17,7.50
2011,07,09,07,18,7.60
2011,07,09,07,19,7.60
2011,07,09,07,20,7.60
2011,07,09,07,21,7.70
2011,07,09,07,22,7.70
2011,07,09,07,23,7.80
2011,07,09,07,24,7.80
2011,07,09,07,25,7.80
2011,07,09,07,26,7.80
2011,07,09,07,27,7.90
2011,07,09,07,28,7.90
2011,07,09,07,29,8.00
2011,07,09,07,30,8.00
2011,07,09,07,31,8.10
2011,07,09,07,32,8.10
2011,07,09,07,33,8.10
2011,07,09,07,34,8.20
2011,07,09,07,35,8.20
2011,07,09,07,36,8.20
2011,07,09,07,37,8.30
2011,07,09,07,38,8.30
2011,07,09,07,39,8.30
2011,07,09,07,40,8.40
2011,07,09,07,41,8.40
2011,07,09,07,42,8.50
2011,07,09,07,43,8.50
2011,07,09,07,44,8.60
2011,07,09,07,45,8.60
2011,07,09,07,46,8.60
2011,07,09,07,47,8.70
2011,07,09,07,48,8.70
2011,07,09,07,49,8.80
2011,07,09,07,50,8.80
2011,07,09,07,51,8.90
2011,07,09,07,52,9.00
2011,07,09,07,53,9.00
2011,07,09,07,54,9.10
2011,07,09,07,55,9.20
2011,07,09,07,56,9.30
2011,07,09,07,57,9.30
2011,07,09,07,58,9.40
2011,07,09,07,59,9.50
2011,07,09,08,00,9.60
2011,07,09,08,01,9.60
2011,07,09,08,02,9.70
2011,07,09,08,03,9.80
2011,07,09,08,04,9.80
2011,07,09,08,05,9.90
2011,07,09,08,06,10.00
2011,07,09,08,07,10.10
2011,07,09,08,08,10.20
2011,07,09,08,09,10.30
2011,07,09,08,10,10.40
2011,07,09,08,11,10.50
2011,07,09,08,12,10.60
2011,07,09,08,13,10.70
2011,07,09,08,14,10.80
2011,07,09,08,15,10.80
2011,07,09,08,16,10.90
2011,07,09,08,17,11.00
2011,07,09,08,18,11.10
2011,07,09,08,19,11.20
2011,07,09,08,20,11.30
2011,07,09,08,21,11.40
2011,07,09,08,22,11.50
2011,07,09,08,23,11.60
2011,07,09,08,24,11.70
2011,07,09,08,25,11.80
2011,07,09,08,26,11.80
2011,07,09,08,27,11.90
2011,07,09,08,28,12.00
2011,07,09,08,29,12.10
2011,07,09,08,30,12.20
2011,07,09,08,31,12.30
2011,07,09,08,32,12.40
2011,07,09,08,33,12.50
2011,07,09,08,34,12.60
2011,07,09,08,35,12.70
2011,07,09,08,36,12.80
2011,07,09,08,37,12.90
2011,07,09,08,38,13.00
2011,07,09,08,39,13.10
2011,07,09,08,40,13.20
2011,07,09,08,41,13.30
2011,07,09,08,42,13.30
2011,07,09,08,43,13.40
2011,07,09,08,44,13.50
2011,07,09,08,45,13.50
2011,07,09,08,46,13.60
2011,07,09,08,47,13.60
2011,07,09,08,48,13.70
2011,07,09,08,49,13.80
2011,07,09,08,50,13.80
2011,07,09,08,51,13.80
2011,07,09,08,52,13.80
2011,07,09,08,53,13.90
2011,07,09,08,54,13.90
2011,07,09,08,55,14.00
2011,07,09,08,56,14.10
2011,07,09,08,57,14.20
2011,07,09,08,58,14.20
2011,07,09,08,59,14.20
2011,07,09,09,00,14.20
2011,07,09,09,01,14.20
2011,07,09,09,02,14.20
2011,07,09,09,03,14.20
2011,07,09,09,04,14.30
2011,07,09,09,05,14.30
2011,07,09,09,06,14.30
2011,07,09,09,07,14.40
2011,07,09,09,08,14.40
2011,07,09,09,09,14.40
2011,07,09,09,10,14.50
2011,07,09,09,11,14.60
2011,07,09,09,12,14.60
2011,07,09,09,13,14.60
2011,07,09,09,14,14.70
2011,07,09,09,15,14.70
2011,07,09,09,16,14.70
2011,07,09,09,17,14.80
2011,07,09,09,18,14.80
2011,07,09,09,19,14.80
2011,07,09,09,20,14.80
2011,07,09,09,21,14.80
2011,07,09,09,22,14.80
2011,07,09,09,23,14.80
2011,07,09,09,24,14.80
2011,07,09,09,25,14.80
2011,07,09,09,26,14.80
2011,07,09,09,27,14.80
2011,07,09,09,28,14.70
2011,07,09,09,29,14.70
2011,07,09,09,30,14.70
2011,07,09,09,31,14.70
2011,07,09,09,32,14.70
2011,07,09,09,33,14.70
2011,07,09,09,34,14.70
2011,07,09,09,35,14.70
2011,07,09,09,36,14.70
2011,07,09,09,37,14.70
2011,07,09,09,38,14.80
2011,07,09,09,39,14.90
2011,07,09,09,40,15.00
2011,07,09,09,41,15.00
2011,07,09,09,42,15.00
2011,07,09,09,43,15.00
2011,07,09,09,44,15.00
2011,07,09,09,45,15.00
2011,07,09,09,46,15.00
2011,07,09,09,47,15.00
2011,07,09,09,48,15.00
2011,07,09,09,49,15.00
2011,07,09,09,50,15.00
2011,07,09,09,51,15.00
2011,07,09,09,52,15.00
2011,07,09,09,53,15.00
2011,07,09,09,54,15.00
2011,07,09,09,55,15.00
2011,07,09,09,56,15.00
2011,07,09,09,57,15.00
2011,07,09,09,58,15.00
2011,07,09,09,59,15.00
2011,07,09,10,00,15.00
2011,07,09,10,01,15.00
2011,07,09,10,02,15.00
2011,07,09,10,03,15.00
2011,07,09,10,04,15.00
2011,07,09,10,05,15.00
2011,07,09,10,06,15.10
2011,07,09,10,07,15.20
2011,07,09,10,08,15.20
2011,07,09,10,09,15.20
2011,07,09,10,10,15.20
2011,07,09,10,11,15.10
2011,07,09,10,12,15.00
2011,07,09,10,13,15.00
2011,07,09,10,14,15.00
2011,07,09,10,15,15.00
2011,07,09,10,16,15.00
2011,07,09,10,17,15.10
2011,07,09,10,18,15.20
2011,07,09,10,19,15.30
2011,07,09,10,20,15.30
2011,07,09,10,21,15.40
2011,07,09,10,22,15.50
2011,07,09,10,23,15.60
2011,07,09,10,24,15.70
2011,07,09,10,25,15.70
2011,07,09,10,26,15.70
2011,07,09,10,27,15.70
2011,07,09,10,28,15.70
2011,07,09,10,29,15.70
2011,07,09,10,30,15.70
2011,07,09,10,31,15.80
2011,07,09,10,32,15.80
2011,07,09,10,33,15.80
2011,07,09,10,34,15.80
2011,07,09,10,35,15.80
2011,07,09,10,36,15.90
2011,07,09,10,37,15.90
2011,07,09,10,38,16.00
2011,07,09,10,39,16.00
2011,07,09,10,40,16.10
2011,07,09,10,41,16.20
2011,07,09,10,42,16.20
2011,07,09,10,43,16.30
2011,07,09,10,44,16.30
2011,07,09,10,45,16.40
2011,07,09,10,46,16.50
2011,07,09,10,47,16.60
2011,07,09,10,48,16.60
2011,07,09,10,49,16.70
2011,07,09,10,50,16.70
2011,07,09,10,51,16.70
2011,07,09,10,52,16.70
2011,07,09,10,53,16.80
2011,07,09,10,54,16.80
2011,07,09,10,55,16.90
2011,07,09,10,56,16.90
2011,07,09,10,57,17.00
2011,07,09,10,58,17.10
2011,07,09,10,59,17.00
2011,07,09,11,00,17.00
2011,07,09,11,01,17.00
2011,07,09,11,02,17.10
2011,07,09,11,03,17.20
2011,07,09,11,04,17.40
2011,07,09,11,05,17.50
2011,07,09,11,06,17.60
2011,07,09,11,07,17.70
2011,07,09,11,08,17.70
2011,07,09,11,09,17.80
2011,07,09,11,10,17.80
2011,07,09,11,11,17.80
2011,07,09,11,12,17.70
2011,07,09,11,13,17.70
2011,07,09,11,14,17.70
2011,07,09,11,15,17.70
2011,07,09,11,16,17.80
2011,07,09,11,17,17.80
2011,07,09,11,18,17.90
2011,07,09,11,19,17.90
2011,07,09,11,20,17.90
2011,07,09,11,21,18.00
2011,07,09,11,22,18.00
2011,07,09,11,23,18.00
2011,07,09,11,24,18.10
2011,07,09,11,25,18.10
2011,07,09,11,26,18.10
2011,07,09,11,27,18.10
2011,07,09,11,28,18.10
2011,07,09,11,29,18.10
2011,07,09,11,30,18.10
2011,07,09,11,31,18.10
2011,07,09,11,32,18.20
2011,07,09,11,33,18.10
2011,07,09,11,34,18.10
2011,07,09,11,35,18.10
2011,07,09,11,36,18.10
2011,07,09,11,37,18.10
2011,07,09,11,38,18.20
2011,07,09,11,39,18.10
2011,07,09,11,40,18.10
2011,07,09,11,41,18.10
2011,07,09,11,42,18.10
2011,07,09,11,43,18.20
2011,07,09,11,44,18.20
2011,07,09,11,45,18.20
2011,07,09,11,46,18.30
2011,07,09,11,47,18.30
2011,07,09,11,48,18.30
2011,07,09,11,49,18.30
2011,07,09,11,50,18.40
2011,07,09,11,51,18.50
2011,07,09,11,52,18.50
2011,07,09,11,53,18.50
2011,07,09,11,54,18.40
2011,07,09,11,55,18.40
2011,07,09,11,56,18.40
2011,07,09,11,57,18.40
2011,07,09,11,58,18.40
2011,07,09,11,59,18.40
2011,07,09,12,00,18.40
2011,07,09,12,01,18.40
2011,07,09,12,02,18.40
2011,07,09,12,03,18.50
2011,07,09,12,04,18.60
2011,07,09,12,05,18.60
2011,07,09,12,06,18.60
2011,07,09,12,07,18.60
2011,07,09,12,08,18.70
2011,07,09,12,09,18.70
2011,07,09,12,10,18.80
2011,07,09,12,11,18.80
2011,07,09,12,12,18.80
2011,07,09,12,13,18.80
2011,07,09,12,14,18.90
2011,07,09,12,15,18.90
2011,07,09,12,16,19.00
2011,07,09,12,17,19.10
2011,07,09,12,18,19.10
2011,07,09,12,19,19.10
2011,07,09,12,20,19.10
2011,07,09,12,21,19.10
2011,07,09,12,22,19.20
2011,07,09,12,23,19.20
2011,07,09,12,24,19.30
2011,07,09,12,25,19.30
2011,07,09,12,26,19.30
2011,07,09,12,27,19.30
2011,07,09,12,28,19.30
2011,07,09,12,29,19.20
2011,07,09,12,30,19.10
2011,07,09,12,31,19.00
2011,07,09,12,32,18.90
2011,07,09,12,33,18.90
2011,07,09,12,34,18.90
2011,07,09,12,35,18.80
2011,07,09,12,36,18.80
2011,07,09,12,37,18.80
2011,07,09,12,38,18.90
2011,07,09,12,39,18.90
2011,07,09,12,40,18.90
2011,07,09,12,41,18.90
2011,07,09,12,42,19.00
2011,07,09,12,43,19.00
2011,07,09,12,44,19.10
2011,07,09,12,45,19.20
2011,07,09,12,46,19.30
2011,07,09,12,47,19.30
2011,07,09,12,48,19.30
2011,07,09,12,49,19.20
2011,07,09,12,50,19.20
2011,07,09,12,51,19.10
2011,07,09,12,52,19.10
2011,07,09,12,53,19.10
2011,07,09,12,54,19.10
2011,07,09,12,55,19.10
2011,07,09,12,56,19.10
2011,07,09,12,57,19.10
2011,07,09,12,58,19.10
2011,07,09,12,59,19.00
2011,07,09,13,00,18.90
2011,07,09,13,01,18.90
2011,07,09,13,02,18.90
2011,07,09,13,03,18.90
2011,07,09,13,04,19.00
2011,07,09,13,05,19.10
2011,07,09,13,06,19.10
2011,07,09,13,07,19.20
2011,07,09,13,08,19.20
2011,07,09,13,09,19.20
2011,07,09,13,10,19.20
2011,07,09,13,11,19.20
2011,07,09,13,12,19.30
2011,07,09,13,13,19.30
2011,07,09,13,14,19.30
2011,07,09,13,15,19.30
2011,07,09,13,16,19.30
2011,07,09,13,17,19.30
2011,07,09,13,18,19.40
2011,07,09,13,19,19.40
2011,07,09,13,20,19.50
2011,07,09,13,21,19.50
2011,07,09,13,22,19.40
2011,07,09,13,23,19.40
2011,07,09,13,24,19.30
2011,07,09,13,25,19.30
2011,07,09,13,26,19.20
2011,07,09,13,27,19.10
2011,07,09,13,28,19.00
2011,07,09,13,29,18.90
2011,07,09,13,30,18.90
2011,07,09,13,31,18.90
2011,07,09,13,32,18.90
2011,07,09,13,33,18.80
2011,07,09,13,34,18.80
2011,07,09,13,35,18.90
2011,07,09,13,36,18.90
2011,07,09,13,37,19.00
2011,07,09,13,38,19.10
2011,07,09,13,39,19.10
2011,07,09,13,40,19.20
2011,07,09,13,41,19.20
2011,07,09,13,42,19.10
2011,07,09,13,43,19.10
2011,07,09,13,44,19.20
2011,07,09,13,45,19.20
2011,07,09,13,46,19.20
2011,07,09,13,47,19.30
2011,07,09,13,48,19.30
2011,07,09,13,49,19.40
2011,07,09,13,50,19.40
2011,07,09,13,51,19.40
2011,07,09,13,52,19.40
2011,07,09,13,53,19.30
2011,07,09,13,54,19.30
2011,07,09,13,55,19.30
2011,07,09,13,56,19.40
2011,07,09,13,57,19.40
2011,07,09,13,58,19.40
2011,07,09,13,59,19.40
2011,07,09,14,00,19.40
2011,07,09,14,01,19.40
2011,07,09,14,02,19.40
2011,07,09,14,03,19.30
2011,07,09,14,04,19.30
2011,07,09,14,05,19.20
2011,07,09,14,06,19.20
2011,07,09,14,07,19.20
2011,07,09,14,08,19.30
2011,07,09,14,09,19.30
2011,07,09,14,10,19.40
2011,07,09,14,11,19.50
2011,07,09,14,12,19.50
2011,07,09,14,13,19.60
2011,07,09,14,14,19.70
2011,07,09,14,15,19.70
2011,07,09,14,16,19.70
2011,07,09,14,17,19.70
2011,07,09,14,18,19.70
2011,07,09,14,19,19.70
2011,07,09,14,20,19.60
2011,07,09,14,21,19.50
2011,07,09,14,22,19.40
2011,07,09,14,23,19.40
2011,07,09,14,24,19.40
2011,07,09,14,25,19.30
2011,07,09,14,26,19.30
2011,07,09,14,27,19.30
2011,07,09,14,28,19.40
2011,07,09,14,29,19.40
2011,07,09,14,30,19.40
2011,07,09,14,31,19.50
2011,07,09,14,32,19.50
2011,07,09,14,33,19.50
2011,07,09,14,34,19.50
2011,07,09,14,35,19.40
2011,07,09,14,36,19.40
2011,07,09,14,37,19.40
2011,07,09,14,38,19.40
2011,07,09,14,39,19.40
2011,07,09,14,40,19.40
2011,07,09,14,41,19.40
2011,07,09,14,42,19.50
2011,07,09,14,43,19.60
2011,07,09,14,44,19.70
2011,07,09,14,45,19.80
2011,07,09,14,46,19.80
2011,07,09,14,47,19.80
2011,07,09,14,48,19.80
2011,07,09,14,49,19.80
2011,07,09,14,50,19.80
2011,07,09,14,51,19.80
2011,07,09,14,52,19.80
2011,07,09,14,53,19.80
2011,07,09,14,54,19.90
2011,07,09,14,55,19.90
2011,07,09,14,56,20.00
2011,07,09,14,57,20.10
2011,07,09,14,58,20.10
2011,07,09,14,59,20.10
2011,07,09,15,00,20.00
2011,07,09,15,01,19.90
2011,07,09,15,02,19.80
2011,07,09,15,03,19.80
2011,07,09,15,04,19.70
2011,07,09,15,05,19.60
2011,07,09,15,06,19.60
2011,07,09,15,07,19.60
2011,07,09,15,08,19.70
2011,07,09,15,09,19.70
2011,07,09,15,10,19.70
2011,07,09,15,11,19.80
2011,07,09,15,12,19.80
2011,07,09,15,13,19.80
2011,07,09,15,14,19.80
2011,07,09,15,15,19.90
2011,07,09,15,16,19.80
2011,07,09,15,17,19.80
2011,07,09,15,18,19.80
2011,07,09,15,19,19.70
2011,07,09,15,20,19.60
2011,07,09,15,21,19.60
2011,07,09,15,22,19.60
2011,07,09,15,23,19.60
2011,07,09,15,24,19.60
2011,07,09,15,25,19.60
2011,07,09,15,26,19.60
2011,07,09,15,27,19.70
2011,07,09,15,28,19.70
2011,07,09,15,29,19.70
2011,07,09,15,30,19.70
2011,07,09,15,31,19.80
2011,07,09,15,32,19.80
2011,07,09,15,33,19.80
2011,07,09,15,34,19.80
2011,07,09,15,35,19.90
2011,07,09,15,36,19.90
2011,07,09,15,37,19.90
2011,07,09,15,38,20.00
2011,07,09,15,39,20.10
2011,07,09,15,40,20.10
2011,07,09,15,41,20.20
2011,07,09,15,42,20.20
2011,07,09,15,43,20.30
2011,07,09,15,44,20.30
2011,07,09,15,45,20.40
2011,07,09,15,46,20.30
2011,07,09,15,47,20.30
2011,07,09,15,48,20.30
2011,07,09,15,49,20.30
2011,07,09,15,50,20.30
2011,07,09,15,51,20.30
2011,07,09,15,52,20.30
2011,07,09,15,53,20.40
2011,07,09,15,54,20.40
2011,07,09,15,55,20.40
2011,07,09,15,56,20.30
2011,07,09,15,57,20.30
2011,07,09,15,58,20.40
2011,07,09,15,59,20.40
2011,07,09,16,00,20.40
2011,07,09,16,01,20.40
2011,07,09,16,02,20.40
2011,07,09,16,03,20.40
2011,07,09,16,04,20.40
2011,07,09,16,05,20.40
2011,07,09,16,06,20.30
2011,07,09,16,07,20.30
2011,07,09,16,08,20.20
2011,07,09,16,09,20.20
2011,07,09,16,10,20.20
2011,07,09,16,11,20.20
2011,07,09,16,12,20.30
2011,07,09,16,13,20.30
2011,07,09,16,14,20.40
2011,07,09,16,15,20.40
2011,07,09,16,16,20.40
2011,07,09,16,17,20.50
2011,07,09,16,18,20.50
2011,07,09,16,19,20.40
2011,07,09,16,20,20.40
2011,07,09,16,21,20.40
2011,07,09,16,22,20.30
2011,07,09,16,23,20.30
2011,07,09,16,24,20.30
2011,07,09,16,25,20.20
2011,07,09,16,26,20.20
2011,07,09,16,27,20.20
2011,07,09,16,28,20.10
2011,07,09,16,29,20.10
2011,07,09,16,30,20.10
2011,07,09,16,31,20.10
2011,07,09,16,32,20.10
2011,07,09,16,33,20.20
2011,07,09,16,34,20.30
2011,07,09,16,35,20.30
2011,07,09,16,36,20.30
2011,07,09,16,37,20.30
2011,07,09,16,38,20.40
2011,07,09,16,39,20.40
2011,07,09,16,40,20.40
2011,07,09,16,41,20.40
2011,07,09,16,42,20.40
2011,07,09,16,43,20.50
2011,07,09,16,44,20.50
2011,07,09,16,45,20.60
2011,07,09,16,46,20.60
2011,07,09,16,47,20.60
2011,07,09,16,48,20.60
2011,07,09,16,49,20.50
2011,07,09,16,50,20.50
2011,07,09,16,51,20.60
2011,07,09,16,52,20.60
2011,07,09,16,53,20.60
2011,07,09,16,54,20.60
2011,07,09,16,55,20.60
2011,07,09,16,56,20.60
2011,07,09,16,57,20.60
2011,07,09,16,58,20.50
2011,07,09,16,59,20.50
2011,07,09,17,00,20.50
2011,07,09,17,01,20.50
2011,07,09,17,02,20.40
2011,07,09,17,03,20.30
2011,07,09,17,04,20.30
2011,07,09,17,05,20.30
2011,07,09,17,06,20.30
2011,07,09,17,07,20.40
2011,07,09,17,08,20.30
2011,07,09,17,09,20.30
2011,07,09,17,10,20.30
2011,07,09,17,11,20.20
2011,07,09,17,12,20.20
2011,07,09,17,13,20.20
2011,07,09,17,14,20.30
2011,07,09,17,15,20.30
2011,07,09,17,16,20.30
2011,07,09,17,17,20.30
2011,07,09,17,18,20.30
2011,07,09,17,19,20.30
2011,07,09,17,20,20.20
2011,07,09,17,21,20.20
2011,07,09,17,22,20.20
2011,07,09,17,23,20.10
2011,07,09,17,24,20.10
2011,07,09,17,25,20.10
2011,07,09,17,26,20.10
2011,07,09,17,27,20.10
2011,07,09,17,28,20.10
2011,07,09,17,29,20.10
2011,07,09,17,30,20.00
2011,07,09,17,31,20.00
2011,07,09,17,32,20.00
2011,07,09,17,33,20.00
2011,07,09,17,34,20.10
2011,07,09,17,35,20.10
2011,07,09,17,36,20.10
2011,07,09,17,37,20.10
2011,07,09,17,38,20.10
2011,07,09,17,39,20.20
2011,07,09,17,40,20.20
2011,07,09,17,41,20.20
2011,07,09,17,42,20.20
2011,07,09,17,43,20.10